Overview Statistics Trail Chart Weather Telemetry Raw packets
 

This is the latest recevied weather packets stored in our database for station/object SQ9SMC-13. If no packets are shown the sender has not sent any weather packets the latest 10 day(s).

<< 41 42 43 44 45 46 47 >>
Time Temp. Humidity Pressure Rain* Wind** Luminosity Snow
1777416004 -2.78° C 87% 1025.8 hPa 0 mm - 0 W/m² -
1777415703 -2.78° C 86% 1025.9 hPa 0 mm - 0 W/m² -
1777415403 -2.78° C 86% 1025.8 hPa 0 mm - 0 W/m² -
1777415102 -2.22° C 85% 1026 hPa 0 mm - 0 W/m² -
1777414804 -2.22° C 86% 1025.9 hPa 0 mm - 0 W/m² -
1777414503 -2.22° C 84% 1025.8 hPa 0 mm - 0 W/m² -
1777414203 -2.22° C 84% 1025.8 hPa 0 mm - 0 W/m² -
1777413604 -2.22° C 82% 1025.9 hPa 0 mm - 0 W/m² -
1777413304 -1.67° C 82% 1025.8 hPa 0 mm - 0 W/m² -
1777413005 -2.22° C 83% 1026 hPa 0 mm - 0 W/m² -
1777412703 -2.22° C 82% 1025.9 hPa 0 mm - 0 W/m² -
1777412403 -2.22° C 82% 1026 hPa 0 mm - 0 W/m² -
1777412104 -1.67° C 81% 1025.9 hPa 0 mm - 0 W/m² -
1777411803 -1.67° C 81% 1026 hPa 0 mm - 0 W/m² -
1777411502 -1.67° C 81% 1026.1 hPa 0 mm - 0 W/m² -
1777411205 -1.67° C 80% 1026.1 hPa 0 mm - 0 W/m² -
1777410903 -1.67° C 79% 1025.9 hPa 0 mm - 0 W/m² -
1777410603 -1.67° C 78% 1026 hPa 0 mm - 0 W/m² -
1777410305 -1.11° C 78% 1025.9 hPa 0 mm - 0 W/m² -
1777410003 -1.11° C 77% 1025.9 hPa 0 mm - 0 W/m² -
1777409703 -1.11° C 76% 1026.1 hPa 0 mm - 0 W/m² -
1777409404 -1.11° C 75% 1026.1 hPa 0 mm - 0 W/m² -
1777409105 -1.11° C 75% 1026.1 hPa 0 mm - 0 W/m² -
1777408802 -0.56° C 74% 1026 hPa 0 mm - 0 W/m² -
1777408503 -0.56° C 74% 1025.8 hPa 0 mm - 0 W/m² -

* Rain latest hour (hover to see other rain measurements)
** Current wind speed in m/s (hover to see current wind gust speed)